DELTA 1 DEB, 10471

Orbit data source: Space-Track

DELTA 1 DEB, 10471 is space debris in LEO originally from a launch on Thu, 14 Jul 1977 UTC launched from the Air Force Eastern Test Range (AFETR). Debris objects in space refer to the collection of defunct objects orbiting the Earth. Examples of debris include non-operational satellites, rocket bodies, and fragments generated from explosions, collisions, or faulty payload assembly.

Loading next visibility...
Identifier
10471, 1977-065ED
Orbit
LEO
Country
Flag of USUS
Related business
Manufacturer
Unknown
Mission
Spacecraft
Bus & Motor
Unknown
Mass
Unknown
Launch date (UTC)
1977-07-14 (49 years ago)
Launch vehicle
Unknown
Launch site
Air Force Eastern Test Range (AFETR)
Object type
Payload
Rocket body
Debris
Shape & HBR
Unknown shape, 0.5 m
Radar Cross Section
Medium (>0.1 m² and <1 m²)

Expand to show TLE details & history
Last TLE update: 6 hours ago

TLE from 6 hours ago
0 DELTA 1 DEB
1 10471U 77065ED  26133.08165325  .00000294  00000-0  53469-4 0  9999
2 10471  29.0626  39.1148 0843085 195.5598 161.7455 13.25988309348716
Epoch: 2026-05-13T01:57Z
TLE epoch observation values (Epoch: 2026-05-13T01:57:34.840Z)
Latitude
Longitude
138.87284°
Altitude
1,768.602 km
Speed
6.71 km/s
True Right ascension
02h 36m 27s
True Declination
0° 00' 00"
Sunlit
Object was in daylight at epoch
Visualization orbit readout
Latitude
Unknown
Longitude
Unknown
Altitude
Unknown
Speed
Unknown
Apparent Right ascension
Unknown
Apparent Declination
Unknown
Sunlit
N/A
Visualization observer readout
Local Sidereal Time
16:15:12
Azimuth
Unknown
Elevation
Unknown
Doppler factor
Unknown
Orbital elements
Apogee altitude
1,801.767 km
Perigee altitude
529.739 km
Semi-major axis
7,543.89 km
Eccentricity
0.08431
Inclination
29.0626°
RAAN
39.1148°
Arg. of periapsis
195.5598°
True anomaly
164.49449°
Mean anomaly
161.7455°
Eccentric anomaly
163.14603°
Mean motion
3.31246 °/min
Orbital period
108.68 mins
BSTAR
0.000053469
Loading maneuver chart data...
Computing Atmospheric mass density...

Documentation

Showing up to 5 results
|